Total_Precipitation_Accumulation
0.00 0.00 0.00 0.00 0.00 0.00 0.00 0.00 0.00 0.00 0.00 0.00 0.00 0.00 0.00 0.00 0.00 0.00 0.00 0.00 0.00 0.00 0.02 0.05 0.08 0.13 0.13 0.09 0.06 0.03 0.02 0.03 0.04 0.05 0.07 0.07 0.05 0.04 0.04 0.05 0.07 0.10 0.14 0.19 0.25 0.25 0.23 0.20 0.16
0.01 0.01 0.00 0.00 0.00 0.00 0.00 0.00 0.00 0.00 0.00 0.00 0.00 0.00 0.00 0.00 0.00 0.00 0.00 0.00 0.00 0.00 0.01 0.04 0.07 0.11 0.11 0.09 0.06 0.03 0.02 0.02 0.03 0.04 0.07 0.09 0.06 0.05 0.05 0.06 0.07 0.09 0.12 0.15 0.16 0.13 0.09 0.06 0.06
0.03 0.01 0.01 0.00 0.00 0.00 0.00 0.00 0.00 0.00 0.00 0.00 0.00 0.00 0.00 0.00 0.00 0.00 0.00 0.00 0.00 0.00 0.01 0.04 0.06 0.09 0.10 0.08 0.06 0.03 0.03 0.02 0.02 0.03 0.06 0.09 0.10 0.08 0.06 0.06 0.06 0.06 0.07 0.08 0.07 0.04 0.02 0.01 0.01
0.05 0.04 0.02 0.01 0.00 0.00 0.00 0.00 0.00 0.00 0.00 0.00 0.00 0.00 0.00 0.00 0.00 0.00 0.00 0.00 0.00 0.00 0.01 0.04 0.06 0.08 0.08 0.07 0.05 0.04 0.03 0.02 0.02 0.03 0.04 0.08 0.12 0.12 0.07 0.04 0.03 0.03 0.03 0.04 0.03 0.01 0.00 0.00 0.00
0.09 0.08 0.05 0.02 0.00 0.00 0.00 0.00 0.00 0.00 0.00 0.00 0.00 0.00 0.00 0.00 0.00 0.00 0.00 0.00 0.00 0.00 0.02 0.05 0.07 0.08 0.07 0.06 0.05 0.04 0.03 0.02 0.01 0.02 0.02 0.06 0.10 0.11 0.08 0.03 0.01 0.01 0.02 0.02 0.01 0.01 0.00 0.00 0.00
0.14 0.11 0.10 0.03 0.00 0.00 0.00 0.00 0.00 0.00 0.00 0.00 0.00 0.00 0.01 0.01 0.01 0.01 0.01 0.01 0.01 0.01 0.02 0.06 0.09 0.08 0.07 0.07 0.06 0.04 0.03 0.02 0.01 0.01 0.02 0.04 0.06 0.09 0.07 0.03 0.01 0.02 0.02 0.01 0.01 0.01 0.01 0.00 0.01
0.14 0.11 0.07 0.02 0.00 0.00 0.00 0.00 0.00 0.00 0.00 0.00 0.00 0.01 0.03 0.02 0.02 0.02 0.02 0.03 0.03 0.01 0.02 0.06 0.09 0.09 0.09 0.07 0.06 0.04 0.03 0.02 0.01 0.01 0.02 0.02 0.03 0.04 0.05 0.03 0.02 0.02 0.02 0.02 0.02 0.02 0.02 0.02 0.01
0.12 0.13 0.08 0.02 0.01 0.00 0.00 0.00 0.00 0.00 0.00 0.00 0.00 0.01 0.05 0.03 0.04 0.05 0.04 0.05 0.05 0.04 0.04 0.05 0.07 0.08 0.08 0.07 0.05 0.04 0.03 0.02 0.01 0.01 0.01 0.01 0.01 0.02 0.02 0.01 0.02 0.02 0.02 0.02 0.02 0.02 0.02 0.02 0.02
0.14 0.17 0.10 0.03 0.00 0.00 0.00 0.00 0.00 0.00 0.00 0.00 0.00 0.01 0.02 0.03 0.06 0.09 0.08 0.08 0.09 0.08 0.06 0.05 0.05 0.06 0.06 0.06 0.04 0.04 0.03 0.02 0.01 0.01 0.00 0.00 0.01 0.01 0.01 0.01 0.00 0.01 0.01 0.01 0.01 0.02 0.02 0.01 0.01
0.15 0.11 0.05 0.01 0.00 0.00 0.00 0.00 0.00 0.00 0.00 0.00 0.01 0.02 0.03 0.06 0.10 0.12 0.10 0.08 0.08 0.08 0.07 0.06 0.05 0.05 0.05 0.05 0.04 0.04 0.02 0.01 0.01 0.01 0.00 0.00 0.01 0.00 0.01 0.00 0.00 0.01 0.01 0.01 0.01 0.01 0.01 0.00 0.00
0.07 0.03 0.01 0.01 0.00 0.00 0.01 0.00 0.00 0.00 0.00 0.00 0.01 0.03 0.06 0.13 0.15 0.14 0.13 0.10 0.07 0.06 0.05 0.05 0.05 0.04 0.04 0.04 0.03 0.03 0.02 0.02 0.01 0.00 0.00 0.00 0.00 0.00 0.00 0.00 0.00 0.00 0.00 0.00 0.00 0.00 0.00 0.00 0.00
0.04 0.02 0.01 0.01 0.01 0.01 0.01 0.01 0.00 0.00 0.00 0.00 0.01 0.03 0.05 0.08 0.11 0.12 0.12 0.10 0.08 0.06 0.04 0.05 0.05 0.04 0.03 0.03 0.02 0.02 0.01 0.01 0.01 0.00 0.00 0.00 0.00 0.00 0.00 0.00 0.00 0.00 0.00 0.00 0.00 0.00 0.00 0.00 0.00
0.05 0.02 0.02 0.02 0.02 0.02 0.01 0.01 0.01 0.00 0.00 0.00 0.02 0.06 0.07 0.08 0.12 0.14 0.14 0.13 0.12 0.07 0.06 0.05 0.05 0.05 0.04 0.03 0.02 0.02 0.01 0.01 0.01 0.00 0.00 0.00 0.00 0.00 0.00 0.00 0.00 0.00 0.00 0.00 0.00 0.00 0.00 0.00 0.00
0.04 0.04 0.04 0.03 0.02 0.02 0.02 0.02 0.01 0.00 0.00 0.02 0.04 0.07 0.08 0.08 0.10 0.10 0.11 0.10 0.10 0.08 0.06 0.05 0.05 0.06 0.04 0.03 0.02 0.02 0.01 0.01 0.01 0.01 0.01 0.00 0.00 0.00 0.00 0.00 0.00 0.00 0.00 0.00 0.00 0.00 0.00 0.00 0.00
0.08 0.11 0.08 0.05 0.04 0.02 0.03 0.04 0.03 0.00 0.00 0.01 0.02 0.05 0.07 0.08 0.08 0.07 0.07 0.07 0.09 0.09 0.09 0.08 0.08 0.08 0.06 0.04 0.04 0.03 0.02 0.03 0.02 0.02 0.01 0.01 0.01 0.00 0.00 0.00 0.00 0.00 0.00 0.00 0.00 0.00 0.00 0.00 0.00
0.23 0.23 0.13 0.04 0.04 0.04 0.05 0.04 0.02 0.01 0.00 0.00 0.01 0.02 0.04 0.05 0.06 0.07 0.07 0.07 0.08 0.11 0.10 0.10 0.10 0.09 0.09 0.07 0.07 0.06 0.06 0.06 0.06 0.06 0.04 0.03 0.02 0.01 0.01 0.01 0.00 0.00 0.00 0.00 0.00 0.00 0.00 0.00 0.00
0.36 0.20 0.08 0.03 0.03 0.04 0.04 0.02 0.01 0.01 0.01 0.00 0.00 0.01 0.02 0.03 0.04 0.04 0.05 0.08 0.08 0.11 0.12 0.11 0.11 0.10 0.11 0.14 0.15 0.15 0.16 0.13 0.13 0.11 0.07 0.06 0.05 0.04 0.03 0.02 0.01 0.01 0.01 0.00 0.00 0.00 0.00 0.00 0.00
0.20 0.08 0.04 0.03 0.01 0.02 0.02 0.00 0.00 0.01 0.01 0.00 0.00 0.00 0.01 0.01 0.02 0.02 0.04 0.06 0.08 0.13 0.14 0.13 0.12 0.13 0.17 0.21 0.24 0.23 0.22 0.17 0.17 0.14 0.13 0.13 0.10 0.08 0.06 0.04 0.03 0.01 0.01 0.01 0.01 0.01 0.01 0.01 0.01
0.16 0.10 0.05 0.02 0.02 0.03 0.01 0.00 0.00 0.01 0.01 0.01 0.00 0.00 0.00 0.01 0.01 0.01 0.03 0.05 0.07 0.09 0.10 0.12 0.12 0.13 0.16 0.17 0.16 0.15 0.16 0.19 0.20 0.20 0.22 0.21 0.18 0.16 0.12 0.08 0.06 0.04 0.03 0.02 0.02 0.02 0.02 0.02 0.02
0.28 0.21 0.11 0.05 0.03 0.05 0.03 0.01 0.00 0.01 0.01 0.01 0.00 0.00 0.00 0.00 0.01 0.01 0.01 0.02 0.04 0.06 0.07 0.08 0.10 0.12 0.12 0.12 0.17 0.19 0.23 0.26 0.27 0.28 0.25 0.23 0.23 0.22 0.18 0.12 0.11 0.10 0.07 0.05 0.05 0.05 0.05 0.04 0.04
0.35 0.25 0.15 0.08 0.05 0.06 0.06 0.03 0.00 0.00 0.00 0.00 0.00 0.00 0.00 0.00 0.00 0.01 0.01 0.02 0.03 0.04 0.04 0.04 0.06 0.09 0.11 0.15 0.22 0.28 0.30 0.27 0.24 0.19 0.18 0.22 0.25 0.27 0.24 0.20 0.18 0.16 0.14 0.10 0.10 0.11 0.12 0.13 0.12
0.39 0.20 0.19 0.16 0.15 0.12 0.07 0.06 0.01 0.00 0.00 0.00 0.00 0.00 0.00 0.00 0.00 0.00 0.00 0.01 0.02 0.02 0.03 0.04 0.05 0.06 0.08 0.12 0.13 0.16 0.18 0.17 0.17 0.20 0.24 0.28 0.28 0.29 0.28 0.27 0.25 0.23 0.21 0.19 0.21 0.24 0.24 0.24 0.20
0.38 0.22 0.23 0.25 0.26 0.23 0.11 0.07 0.01 0.00 0.00 0.00 0.00 0.00 0.00 0.00 0.00 0.00 0.00 0.00 0.01 0.01 0.02 0.03 0.03 0.03 0.04 0.06 0.07 0.11 0.12 0.14 0.17 0.20 0.22 0.24 0.25 0.26 0.27 0.28 0.29 0.28 0.29 0.32 0.35 0.36 0.36 0.35 0.33
0.45 0.45 0.47 0.45 0.53 0.48 0.14 0.08 0.02 0.00 0.00 0.00 0.00 0.00 0.00 0.00 0.00 0.00 0.00 0.00 0.00 0.00 0.01 0.01 0.01 0.01 0.02 0.04 0.05 0.07 0.09 0.12 0.15 0.16 0.18 0.21 0.25 0.26 0.26 0.29 0.31 0.35 0.37 0.38 0.42 0.46 0.49 0.51 0.50
0.71 0.95 1.22 1.07 0.83 0.37 0.08 0.07 0.03 0.00 0.00 0.00 0.00 0.00 0.00 0.00 0.00 0.00 0.00 0.00 0.00 0.00 0.00 0.00 0.01 0.01 0.02 0.03 0.03 0.04 0.08 0.12 0.14 0.17 0.19 0.21 0.21 0.20 0.23 0.29 0.34 0.39 0.44 0.47 0.48 0.48 0.48 0.54 0.59
0.69 0.82 0.94 0.69 0.35 0.11 0.05 0.04 0.01 0.00 0.00 0.00 0.00 0.00 0.00 0.00 0.00 0.00 0.00 0.00 0.00 0.00 0.00 0.00 0.00 0.01 0.02 0.03 0.03 0.04 0.05 0.08 0.10 0.13 0.14 0.17 0.20 0.25 0.29 0.32 0.35 0.38 0.40 0.42 0.43 0.45 0.47 0.53 0.58
0.64 0.62 0.52 0.60 0.35 0.16 0.06 0.02 0.00 0.00 0.00 0.00 0.00 0.00 0.00 0.00 0.00 0.00 0.00 0.00 0.00 0.00 0.00 0.00 0.00 0.01 0.02 0.03 0.04 0.03 0.04 0.05 0.07 0.09 0.10 0.13 0.16 0.19 0.22 0.26 0.28 0.28 0.30 0.32 0.35 0.37 0.39 0.42 0.47
0.56 0.50 0.63 0.87 0.62 0.29 0.07 0.01 0.00 0.00 0.00 0.00 0.00 0.00 0.00 0.00 0.00 0.00 0.00 0.00 0.00 0.00 0.00 0.01 0.01 0.01 0.02 0.03 0.03 0.03 0.03 0.05 0.06 0.07 0.06 0.07 0.09 0.12 0.14 0.17 0.19 0.20 0.21 0.21 0.23 0.24 0.24 0.28 0.31
0.52 0.62 0.71 0.70 0.46 0.35 0.16 0.02 0.01 0.01 0.01 0.01 0.00 0.00 0.00 0.00 0.00 0.00 0.00 0.00 0.00 0.01 0.01 0.01 0.02 0.02 0.03 0.04 0.03 0.03 0.04 0.05 0.06 0.06 0.06 0.07 0.08 0.08 0.10 0.11 0.13 0.13 0.13 0.13 0.14 0.14 0.15 0.18 0.21
0.41 0.38 0.48 0.69 0.48 0.30 0.20 0.06 0.01 0.02 0.02 0.02 0.02 0.02 0.01 0.01 0.00 0.00 0.00 0.00 0.01 0.02 0.02 0.02 0.03 0.04 0.04 0.04 0.04 0.05 0.05 0.05 0.05 0.06 0.06 0.07 0.07 0.07 0.07 0.07 0.08 0.09 0.09 0.09 0.09 0.10 0.11 0.13 0.15